This is the latest recevied weather packets stored in our database for station/object SV9TNF-56. If no packets are shown the sender has not sent any weather packets the latest 10 day(s).
| Time | Temp. | Humidity | Pressure | Rain* | Wind** | Luminosity | Snow |
|---|---|---|---|---|---|---|---|
| 1788374933 | 26.11° C | 52% | 1010.8 hPa | 0 mm | 14.75 m/s, 156° | - | - |
| 1788374633 | 25.56° C | 54% | 1011.2 hPa | 0 mm | 17.88 m/s, 142° | - | - |
| 1788374333 | 25.56° C | 56% | 1010.8 hPa | 0 mm | 11.18 m/s, 165° | - | - |
| 1788374056 | 25.56° C | 57% | 1010.8 hPa | 0 mm | 16.99 m/s, 132° | - | - |
| 1788373732 | 25° C | 62% | 1010.8 hPa | 0 mm | 12.07 m/s, 116° | - | - |
| 1788373432 | 25° C | 64% | 1011.2 hPa | 0 mm | 15.2 m/s, 110° | - | - |
| 1788373132 | 25° C | 65% | 1010.8 hPa | 0 mm | 16.99 m/s, 98° | - | - |
| 1788372832 | 25.56° C | 63% | 1010.8 hPa | 0 mm | 5.36 m/s, 48° | - | - |
| 1788372532 | 25° C | 64% | 1010.8 hPa | 0 mm | 4.47 m/s, 97° | - | - |
| 1788372232 | 25° C | 67% | 1010.8 hPa | 0 mm | 8.05 m/s, 103° | - | - |
| 1788371932 | 25° C | 68% | 1010.8 hPa | 0 mm | 16.99 m/s, 70° | - | - |
| 1788371632 | 25° C | 65% | 1010.8 hPa | 0 mm | 13.41 m/s, 90° | - | - |
| 1788371331 | 25° C | 65% | 1010.8 hPa | 0 mm | 8.05 m/s, 132° | - | - |
| 1788371031 | 25° C | 68% | 1010.8 hPa | 0 mm | 13.86 m/s, 222° | - | - |
| 1788370731 | 25° C | 68% | 1010.8 hPa | 0 mm | 5.36 m/s, 238° | - | - |
| 1788370431 | 25° C | 67% | 1010.8 hPa | 0 mm | 14.31 m/s, 117° | - | - |
| 1788370131 | 25° C | 66% | 1010.5 hPa | 0 mm | 4.92 m/s, 179° | - | - |
| 1788369831 | 25.56° C | 65% | 1010.5 hPa | 0 mm | 22.8 m/s, 227° | - | - |
| 1788369531 | 25.56° C | 61% | 1010.5 hPa | 0 mm | 5.81 m/s, 192° | - | - |
| 1788369230 | 26.11° C | 54% | 1010.5 hPa | 0 mm | 12.07 m/s, 96° | - | - |
| 1788368930 | 25.56° C | 51% | 1010.2 hPa | 0 mm | 24.59 m/s, 98° | - | - |
| 1788368630 | 25° C | 55% | 1010.2 hPa | 0 mm | 29.5 m/s, 105° | - | - |
| 1788368330 | 25° C | 64% | 1010.2 hPa | 0 mm | 22.8 m/s, 138° | - | - |
| 1788368030 | 25° C | 65% | 1010.2 hPa | 0 mm | 23.25 m/s, 174° | - | - |
| 1788367730 | 25° C | 65% | 1010.2 hPa | 0 mm | 19.67 m/s, 143° | - | - |
* Rain latest hour (hover to see other rain measurements)
** Current wind speed in m/s (hover to see current wind gust speed)